This is the latest recevied weather packets stored in our database for station/object IZ3LCH-13. If no packets are shown the sender has not sent any weather packets the latest 1 day(s).
| Time | Temp. | Humidity | Pressure | Rain* | Wind** | Luminosity | Snow |
|---|---|---|---|---|---|---|---|
| 1777987803 | 16.67° C | 75% | 1013.1 hPa | 0 mm | 1.79 m/s, 25° | - | - |
| 1777987503 | 16.67° C | 75% | 1013.1 hPa | 0 mm | 1.79 m/s, 22° | - | - |
| 1777987203 | 16.67° C | 74% | 1013.1 hPa | 0 mm | 1.79 m/s, 22° | - | - |
| 1777986903 | 16.67° C | 74% | 1013 hPa | 0 mm | 1.79 m/s, 23° | - | - |
| 1777986603 | 16.67° C | 75% | 1013.2 hPa | 0 mm | 1.79 m/s, 34° | - | - |
| 1777986303 | 16.67° C | 74% | 1013.1 hPa | 0 mm | 1.79 m/s, 40° | - | - |
| 1777986003 | 16.67° C | 74% | 1013.2 hPa | 0 mm | 1.79 m/s, 42° | - | - |
| 1777985703 | 16.67° C | 75% | 1013.4 hPa | 0 mm | 1.79 m/s, 38° | - | - |
| 1777985403 | 16.67° C | 75% | 1013.3 hPa | 0 mm | 1.79 m/s, 35° | - | - |
| 1777985103 | 16.67° C | 75% | 1013.6 hPa | 0 mm | 1.79 m/s, 34° | - | - |
| 1777984803 | 16.11° C | 74% | 1013.5 hPa | 0 mm | 1.79 m/s, 35° | - | - |
| 1777984503 | 16.11° C | 75% | 1013.3 hPa | 0 mm | 1.79 m/s, 53° | - | - |
| 1777984203 | 16.11° C | 75% | 1013.5 hPa | 0 mm | 1.34 m/s, 56° | - | - |
| 1777983903 | 16.11° C | 75% | 1013.5 hPa | 0 mm | 1.79 m/s, 55° | - | - |
| 1777983603 | 16.11° C | 75% | 1013.5 hPa | 0 mm | 1.79 m/s, 54° | - | - |
| 1777983303 | 16.11° C | 74% | 1013.6 hPa | 0 mm | 1.79 m/s, 48° | - | - |
| 1777983003 | 16.11° C | 74% | 1013.6 hPa | 0 mm | 1.79 m/s, 47° | - | - |
| 1777982703 | 16.11° C | 74% | 1013.7 hPa | 0 mm | 1.79 m/s, 54° | - | - |
| 1777982403 | 16.11° C | 73% | 1013.5 hPa | 0 mm | 2.24 m/s, 58° | - | - |
| 1777982103 | 16.11° C | 72% | 1013.6 hPa | 0 mm | 2.24 m/s, 65° | - | - |
| 1777981803 | 16.11° C | 72% | 1013.4 hPa | 0 mm | 1.79 m/s, 66° | - | - |
| 1777981503 | 16.11° C | 72% | 1013.5 hPa | 0 mm | 1.79 m/s, 53° | - | - |
| 1777981203 | 16.67° C | 72% | 1013.5 hPa | 0 mm | 2.24 m/s, 60° | - | - |
| 1777980903 | 16.67° C | 72% | 1013.6 hPa | 0 mm | 2.24 m/s, 59° | - | - |
| 1777980603 | 16.67° C | 74% | 1013.5 hPa | 0 mm | 2.24 m/s, 49° | - | - |
* Rain latest hour (hover to see other rain measurements)
** Current wind speed in m/s (hover to see current wind gust speed)